Wetterdaten: aktuell Samstag, 02.07.2022 03:23
Datum Zeit Temperatur Luftfeuchte Luftdruck Regen Wind Richtung Richtung Sonnenschein UV Solar Taupunkt Windchill Windben
02.07.2022 03:23 8,1 C 96 % 1025,0 hPa 0,0 l/m 1,9 km/h (1 Bft) O-SO 108 0 min 0,0 UV-I 0 W/m 7,5 C 8,1 C 3,2 km/h (1 Bft)
02.07.2022 03:22 8,0 C 96 % 1025,0 hPa 0,0 l/m 1,3 km/h (1 Bft) O 90 0 min 0,0 UV-I 0 W/m 7,4 C 8,0 C 3,2 km/h (1 Bft)
02.07.2022 03:21 7,9 C 96 % 1025,0 hPa 0,0 l/m 1,0 km/h (0 Bft) O-NO 65 0 min 0,0 UV-I 0 W/m 7,3 C 7,9 C 1,6 km/h (1 Bft)
02.07.2022 03:20 8,1 C 96 % 1025,0 hPa 0,0 l/m 0,9 km/h (0 Bft) O-NO 65 0 min 0,0 UV-I 0 W/m 7,5 C 8,1 C 1,6 km/h (1 Bft)
02.07.2022 03:19 8,1 C 96 % 1024,9 hPa 0,0 l/m 1,1 km/h (1 Bft) O-NO 65 0 min 0,0 UV-I 0 W/m 7,5 C 8,1 C 1,6 km/h (1 Bft)
02.07.2022 03:18 8,2 C 96 % 1025,0 hPa 0,0 l/m 1,3 km/h (1 Bft) O-NO 61 0 min 0,0 UV-I 0 W/m 7,6 C 8,2 C 3,2 km/h (1 Bft)
02.07.2022 03:17 8,2 C 97 % 1024,9 hPa 0,0 l/m 0,0 km/h (0 Bft) O-NO 61 0 min 0,0 UV-I 0 W/m 7,8 C 8,2 C 0,0 km/h (0 Bft)
02.07.2022 03:16 8,3 C 97 % 1024,9 hPa 0,0 l/m 0,0 km/h (0 Bft) O-NO 61 0 min 0,0 UV-I 0 W/m 7,9 C 8,3 C 0,0 km/h (0 Bft)
02.07.2022 03:15 8,4 C 97 % 1025,0 hPa 0,0 l/m 0,0 km/h (0 Bft) O-NO 61 0 min 0,0 UV-I 0 W/m 8,0 C 8,4 C 0,0 km/h (0 Bft)
02.07.2022 03:14 8,4 C 97 % 1025,0 hPa 0,0 l/m 0,3 km/h (0 Bft) O-NO 61 0 min 0,0 UV-I 0 W/m 8,0 C 8,4 C 1,6 km/h (1 Bft)
02.07.2022 03:13 8,3 C 97 % 1025,0 hPa 0,0 l/m 2,4 km/h (1 Bft) O-NO 61 0 min 0,0 UV-I 0 W/m 7,9 C 8,3 C 3,2 km/h (1 Bft)
02.07.2022 03:12 8,3 C 97 % 1024,9 hPa 0,0 l/m 1,0 km/h (0 Bft) O-NO 65 0 min 0,0 UV-I 0 W/m 7,9 C 8,3 C 3,2 km/h (1 Bft)
02.07.2022 03:11 8,3 C 97 % 1024,9 hPa 0,0 l/m 0,1 km/h (0 Bft) O 84 0 min 0,0 UV-I 0 W/m 7,9 C 8,3 C 1,6 km/h (1 Bft)
02.07.2022 03:10 8,3 C 97 % 1025,0 hPa 0,0 l/m 1,1 km/h (1 Bft) O 89 0 min 0,0 UV-I 0 W/m 7,9 C 8,3 C 1,6 km/h (1 Bft)
02.07.2022 03:09 8,3 C 96 % 1025,0 hPa 0,0 l/m 1,3 km/h (1 Bft) O 89 0 min 0,0 UV-I 0 W/m 7,7 C 8,3 C 1,6 km/h (1 Bft)
02.07.2022 03:08 8,3 C 96 % 1024,9 hPa 0,0 l/m 1,1 km/h (1 Bft) O 89 0 min 0,0 UV-I 0 W/m 7,7 C 8,3 C 1,6 km/h (1 Bft)
02.07.2022 03:07 8,3 C 97 % 1024,9 hPa 0,0 l/m 0,1 km/h (0 Bft) O 89 0 min 0,0 UV-I 0 W/m 7,9 C 8,3 C 1,6 km/h (1 Bft)
02.07.2022 03:06 8,4 C 97 % 1024,9 hPa 0,0 l/m 0,7 km/h (0 Bft) O 89 0 min 0,0 UV-I 0 W/m 8,0 C 8,4 C 1,6 km/h (1 Bft)
02.07.2022 03:05 8,5 C 97 % 1024,9 hPa 0,0 l/m 1,9 km/h (1 Bft) O 89 0 min 0,0 UV-I 0 W/m 8,1 C 8,5 C 3,2 km/h (1 Bft)
02.07.2022 03:04 8,6 C 97 % 1024,8 hPa 0,0 l/m 1,7 km/h (1 Bft) O 80 0 min 0,0 UV-I 0 W/m 8,2 C 8,6 C 3,2 km/h (1 Bft)
02.07.2022 03:03 8,6 C 97 % 1024,9 hPa 0,0 l/m 0,2 km/h (0 Bft) NO 56 0 min 0,0 UV-I 0 W/m 8,2 C 8,6 C 1,6 km/h (1 Bft)
02.07.2022 03:01 8,6 C 97 % 1024,7 hPa 0,0 l/m 0,0 km/h (0 Bft) NO 46 0 min 0,0 UV-I 0 W/m 8,2 C 8,6 C 0,0 km/h (0 Bft)
02.07.2022 03:00 8,6 C 97 % 1024,9 hPa 0,0 l/m 0,0 km/h (0 Bft) NO 46 0 min 0,0 UV-I 0 W/m 8,2 C 8,6 C 0,0 km/h (0 Bft)
02.07.2022 02:59 8,5 C 96 % 1024,9 hPa 0,0 l/m 0,2 km/h (0 Bft) NO 46 0 min 0,0 UV-I 0 W/m 7,9 C 8,5 C 1,6 km/h (1 Bft)
02.07.2022 02:58 8,5 C 96 % 1024,9 hPa 0,0 l/m 1,3 km/h (1 Bft) NO 46 0 min 0,0 UV-I 0 W/m 7,9 C 8,5 C 1,6 km/h (1 Bft)
02.07.2022 02:57 8,5 C 96 % 1024,8 hPa 0,0 l/m 2,6 km/h (1 Bft) NO 46 0 min 0,0 UV-I 0 W/m 7,9 C 8,5 C 3,2 km/h (1 Bft)
02.07.2022 02:56 8,4 C 96 % 1024,9 hPa 0,0 l/m 1,7 km/h (1 Bft) NO 46 0 min 0,0 UV-I 0 W/m 7,8 C 8,4 C 3,2 km/h (1 Bft)
02.07.2022 02:55 8,6 C 97 % 1024,9 hPa 0,0 l/m 0,4 km/h (0 Bft) O-NO 71 0 min 0,0 UV-I 0 W/m 8,2 C 8,6 C 1,6 km/h (1 Bft)
02.07.2022 02:54 8,6 C 97 % 1024,9 hPa 0,0 l/m 0,1 km/h (0 Bft) O 81 0 min 0,0 UV-I 0 W/m 8,2 C 8,6 C 1,6 km/h (1 Bft)
02.07.2022 02:53 8,6 C 97 % 1024,8 hPa 0,0 l/m 0,8 km/h (0 Bft) O 81 0 min 0,0 UV-I 0 W/m 8,2 C 8,6 C 1,6 km/h (1 Bft)
02.07.2022 02:52 8,6 C 97 % 1024,9 hPa 0,0 l/m 1,0 km/h (0 Bft) O 81 0 min 0,0 UV-I 0 W/m 8,2 C 8,6 C 1,6 km/h (1 Bft)
02.07.2022 02:51 8,6 C 97 % 1024,8 hPa 0,0 l/m 0,1 km/h (0 Bft) O 81 0 min 0,0 UV-I 0 W/m 8,2 C 8,6 C 1,6 km/h (1 Bft)
02.07.2022 02:50 8,6 C 97 % 1024,8 hPa 0,0 l/m 0,0 km/h (0 Bft) O 81 0 min 0,0 UV-I 0 W/m 8,2 C 8,6 C 0,0 km/h (0 Bft)
02.07.2022 02:49 8,6 C 97 % 1024,8 hPa 0,0 l/m 0,0 km/h (0 Bft) O 81 0 min 0,0 UV-I 0 W/m 8,2 C 8,6 C 0,0 km/h (0 Bft)
02.07.2022 02:48 8,6 C 97 % 1024,8 hPa 0,0 l/m 0,0 km/h (0 Bft) O 81 0 min 0,0 UV-I 0 W/m 8,2 C 8,6 C 0,0 km/h (0 Bft)
02.07.2022 02:47 8,6 C 97 % 1024,8 hPa 0,0 l/m 0,7 km/h (0 Bft) O 81 0 min 0,0 UV-I 0 W/m 8,2 C 8,6 C 1,6 km/h (1 Bft)
02.07.2022 02:46 8,6 C 97 % 1024,8 hPa 0,0 l/m 1,2 km/h (1 Bft) O 81 0 min 0,0 UV-I 0 W/m 8,2 C 8,6 C 1,6 km/h (1 Bft)
02.07.2022 02:45 8,6 C 96 % 1024,8 hPa 0,0 l/m 1,1 km/h (1 Bft) O 81 0 min 0,0 UV-I 0 W/m 8,0 C 8,6 C 1,6 km/h (1 Bft)
02.07.2022 02:44 8,4 C 97 % 1024,8 hPa 0,0 l/m 1,3 km/h (1 Bft) O 81 0 min 0,0 UV-I 0 W/m 8,0 C 8,4 C 1,6 km/h (1 Bft)
02.07.2022 02:43 8,4 C 96 % 1024,8 hPa 0,0 l/m 1,7 km/h (1 Bft) O 81 0 min 0,0 UV-I 0 W/m 7,8 C 8,4 C 3,2 km/h (1 Bft)
02.07.2022 02:42 8,3 C 96 % 1024,8 hPa 0,0 l/m 0,0 km/h (0 Bft) O 81 0 min 0,0 UV-I 0 W/m 7,7 C 8,3 C 0,0 km/h (0 Bft)
02.07.2022 02:41 8,3 C 96 % 1024,8 hPa 0,0 l/m 0,0 km/h (0 Bft) O 81 0 min 0,0 UV-I 0 W/m 7,7 C 8,3 C 0,0 km/h (0 Bft)
02.07.2022 02:40 8,3 C 96 % 1024,8 hPa 0,0 l/m 0,0 km/h (0 Bft) O 81 0 min 0,0 UV-I 0 W/m 7,7 C 8,3 C 0,0 km/h (0 Bft)
02.07.2022 02:39 8,3 C 96 % 1024,7 hPa 0,0 l/m 0,0 km/h (0 Bft) O 81 0 min 0,0 UV-I 0 W/m 7,7 C 8,3 C 0,0 km/h (0 Bft)
02.07.2022 02:38 8,3 C 96 % 1024,8 hPa 0,0 l/m 0,0 km/h (0 Bft) O 81 0 min 0,0 UV-I 0 W/m 7,7 C 8,3 C 0,0 km/h (0 Bft)
02.07.2022 02:37 8,3 C 96 % 1024,7 hPa 0,0 l/m 0,1 km/h (0 Bft) O 81 0 min 0,0 UV-I 0 W/m 7,7 C 8,3 C 1,6 km/h (1 Bft)
02.07.2022 02:36 8,3 C 96 % 1024,8 hPa 0,0 l/m 0,7 km/h (0 Bft) O 81 0 min 0,0 UV-I 0 W/m 7,7 C 8,3 C 1,6 km/h (1 Bft)
02.07.2022 02:35 8,4 C 96 % 1024,8 hPa 0,0 l/m 0,8 km/h (0 Bft) O-NO 75 0 min 0,0 UV-I 0 W/m 7,8 C 8,4 C 1,6 km/h (1 Bft)
02.07.2022 02:34 8,6 C 96 % 1024,8 hPa 0,0 l/m 1,1 km/h (1 Bft) O-NO 75 0 min 0,0 UV-I 0 W/m 8,0 C 8,6 C 1,6 km/h (1 Bft)
02.07.2022 02:33 8,7 C 96 % 1024,8 hPa 0,0 l/m 0,9 km/h (0 Bft) O-NO 75 0 min 0,0 UV-I 0 W/m 8,1 C 8,7 C 1,6 km/h (1 Bft)
02.07.2022 02:32 8,8 C 96 % 1024,8 hPa 0,0 l/m 0,5 km/h (0 Bft) O-NO 75 0 min 0,0 UV-I 0 W/m 8,2 C 8,8 C 1,6 km/h (1 Bft)
02.07.2022 02:31 8,9 C 96 % 1024,8 hPa 0,0 l/m 0,5 km/h (0 Bft) O-NO 75 0 min 0,0 UV-I 0 W/m 8,3 C 8,9 C 1,6 km/h (1 Bft)
02.07.2022 02:30 9,0 C 96 % 1024,9 hPa 0,0 l/m 0,2 km/h (0 Bft) O-NO 75 0 min 0,0 UV-I 0 W/m 8,4 C 9,0 C 1,6 km/h (1 Bft)
02.07.2022 02:29 9,1 C 96 % 1024,8 hPa 0,0 l/m 0,5 km/h (0 Bft) O-NO 75 0 min 0,0 UV-I 0 W/m 8,5 C 9,1 C 1,6 km/h (1 Bft)
02.07.2022 02:28 9,1 C 96 % 1024,8 hPa 0,0 l/m 1,1 km/h (1 Bft) O-NO 75 0 min 0,0 UV-I 0 W/m 8,5 C 9,1 C 1,6 km/h (1 Bft)
02.07.2022 02:27 9,1 C 96 % 1024,7 hPa 0,0 l/m 0,3 km/h (0 Bft) O-NO 77 0 min 0,0 UV-I 0 W/m 8,5 C 9,1 C 1,6 km/h (1 Bft)
02.07.2022 02:26 9,1 C 96 % 1024,8 hPa 0,0 l/m 1,3 km/h (1 Bft) O 101 0 min 0,0 UV-I 0 W/m 8,5 C 9,1 C 1,6 km/h (1 Bft)
02.07.2022 02:25 9,1 C 96 % 1024,8 hPa 0,0 l/m 1,3 km/h (1 Bft) O 101 0 min 0,0 UV-I 0 W/m 8,5 C 9,1 C 1,6 km/h (1 Bft)
02.07.2022 02:24 9,1 C 96 % 1024,8 hPa 0,0 l/m 1,3 km/h (1 Bft) O 101 0 min 0,0 UV-I 0 W/m 8,5 C 9,1 C 1,6 km/h (1 Bft)
02.07.2022 02:23 9,2 C 96 % 1024,8 hPa 0,0 l/m 1,2 km/h (1 Bft) O 101 0 min 0,0 UV-I 0 W/m 8,6 C 9,2 C 1,6 km/h (1 Bft)
02.07.2022 02:22 9,2 C 96 % 1024,8 hPa 0,0 l/m 0,9 km/h (0 Bft) O 101 0 min 0,0 UV-I 0 W/m 8,6 C 9,2 C 3,2 km/h (1 Bft)
02.07.2022 02:21 9,2 C 96 % 1024,8 hPa 0,0 l/m 0,8 km/h (0 Bft) O 96 0 min 0,0 UV-I 0 W/m 8,6 C 9,2 C 1,6 km/h (1 Bft)
02.07.2022 02:20 9,2 C 96 % 1024,9 hPa 0,0 l/m 1,1 km/h (1 Bft) O-SO 109 0 min 0,0 UV-I 0 W/m 8,6 C 9,2 C 1,6 km/h (1 Bft)
02.07.2022 02:19 9,1 C 96 % 1024,8 hPa 0,0 l/m 0,4 km/h (0 Bft) O-SO 113 0 min 0,0 UV-I 0 W/m 8,5 C 9,1 C 1,6 km/h (1 Bft)
02.07.2022 02:18 9,1 C 96 % 1024,8 hPa 0,0 l/m 0,9 km/h (0 Bft) O-SO 113 0 min 0,0 UV-I 0 W/m 8,5 C 9,1 C 1,6 km/h (1 Bft)
02.07.2022 02:17 9,1 C 96 % 1024,8 hPa 0,0 l/m 0,1 km/h (0 Bft) O-SO 113 0 min 0,0 UV-I 0 W/m 8,5 C 9,1 C 1,6 km/h (1 Bft)
02.07.2022 02:16 9,1 C 96 % 1024,8 hPa 0,0 l/m 1,0 km/h (0 Bft) O-SO 113 0 min 0,0 UV-I 0 W/m 8,5 C 9,1 C 1,6 km/h (1 Bft)
02.07.2022 02:15 9,1 C 96 % 1024,8 hPa 0,0 l/m 1,5 km/h (1 Bft) O-SO 113 0 min 0,0 UV-I 0 W/m 8,5 C 9,1 C 3,2 km/h (1 Bft)
02.07.2022 02:14 9,2 C 96 % 1024,8 hPa 0,0 l/m 0,9 km/h (0 Bft) O-NO 68 0 min 0,0 UV-I 0 W/m 8,6 C 9,2 C 1,6 km/h (1 Bft)
02.07.2022 02:13 9,1 C 96 % 1024,8 hPa 0,0 l/m 0,0 km/h (0 Bft) O-NO 68 0 min 0,0 UV-I 0 W/m 8,5 C 9,1 C 0,0 km/h (0 Bft)
02.07.2022 02:12 9,1 C 96 % 1024,8 hPa 0,0 l/m 0,0 km/h (0 Bft) O-NO 68 0 min 0,0 UV-I 0 W/m 8,5 C 9,1 C 0,0 km/h (0 Bft)
02.07.2022 02:11 9,1 C 96 % 1024,9 hPa 0,0 l/m 0,0 km/h (0 Bft) O-NO 68 0 min 0,0 UV-I 0 W/m 8,5 C 9,1 C 0,0 km/h (0 Bft)
02.07.2022 02:10 9,1 C 96 % 1024,9 hPa 0,0 l/m 0,0 km/h (0 Bft) O-NO 68 0 min 0,0 UV-I 0 W/m 8,5 C 9,1 C 0,0 km/h (0 Bft)
02.07.2022 02:09 9,1 C 96 % 1024,8 hPa 0,0 l/m 0,0 km/h (0 Bft) O-NO 68 0 min 0,0 UV-I 0 W/m 8,5 C 9,1 C 0,0 km/h (0 Bft)
02.07.2022 02:08 9,2 C 96 % 1024,8 hPa 0,0 l/m 0,7 km/h (0 Bft) O-NO 68 0 min 0,0 UV-I 0 W/m 8,6 C 9,2 C 1,6 km/h (1 Bft)
02.07.2022 02:07 9,3 C 96 % 1024,8 hPa 0,0 l/m 0,0 km/h (0 Bft) O-NO 68 0 min 0,0 UV-I 0 W/m 8,7 C 9,3 C 0,0 km/h (0 Bft)
02.07.2022 02:06 9,3 C 96 % 1024,8 hPa 0,0 l/m 0,9 km/h (0 Bft) O-NO 68 0 min 0,0 UV-I 0 W/m 8,7 C 9,3 C 1,6 km/h (1 Bft)
02.07.2022 02:05 9,3 C 96 % 1024,9 hPa 0,0 l/m 1,5 km/h (1 Bft) O-NO 68 0 min 0,0 UV-I 0 W/m 8,7 C 9,3 C 1,6 km/h (1 Bft)
02.07.2022 02:04 9,2 C 96 % 1024,9 hPa 0,0 l/m 1,1 km/h (1 Bft) O-NO 68 0 min 0,0 UV-I 0 W/m 8,6 C 9,2 C 1,6 km/h (1 Bft)
02.07.2022 02:03 9,3 C 96 % 1024,9 hPa 0,0 l/m 0,1 km/h (0 Bft) O-NO 68 0 min 0,0 UV-I 0 W/m 8,7 C 9,3 C 1,6 km/h (1 Bft)
02.07.2022 02:02 9,3 C 96 % 1024,9 hPa 0,0 l/m 0,5 km/h (0 Bft) O-NO 68 0 min 0,0 UV-I 0 W/m 8,7 C 9,3 C 1,6 km/h (1 Bft)
02.07.2022 02:01 9,4 C 96 % 1024,9 hPa 0,0 l/m 0,7 km/h (0 Bft) O-NO 68 0 min 0,0 UV-I 0 W/m 8,8 C 9,4 C 1,6 km/h (1 Bft)
02.07.2022 02:00 9,4 C 96 % 1024,9 hPa 0,0 l/m 0,3 km/h (0 Bft) O-NO 68 0 min 0,0 UV-I 0 W/m 8,8 C 9,4 C 1,6 km/h (1 Bft)
02.07.2022 01:59 9,5 C 96 % 1024,9 hPa 0,0 l/m 0,0 km/h (0 Bft) O-NO 68 0 min 0,0 UV-I 0 W/m 8,9 C 9,5 C 0,0 km/h (0 Bft)
02.07.2022 01:58 9,5 C 96 % 1024,9 hPa 0,0 l/m 0,0 km/h (0 Bft) O-NO 68 0 min 0,0 UV-I 0 W/m 8,9 C 9,5 C 0,0 km/h (0 Bft)
02.07.2022 01:57 9,5 C 96 % 1024,9 hPa 0,0 l/m 0,7 km/h (0 Bft) O-NO 68 0 min 0,0 UV-I 0 W/m 8,9 C 9,5 C 1,6 km/h (1 Bft)
02.07.2022 01:56 9,5 C 96 % 1025,0 hPa 0,0 l/m 0,0 km/h (0 Bft) O-NO 68 0 min 0,0 UV-I 0 W/m 8,9 C 9,5 C 0,0 km/h (0 Bft)
02.07.2022 01:55 9,4 C 96 % 1025,0 hPa 0,0 l/m 0,0 km/h (0 Bft) O-NO 68 0 min 0,0 UV-I 0 W/m 8,8 C 9,4 C 0,0 km/h (0 Bft)
02.07.2022 01:54 9,4 C 96 % 1025,0 hPa 0,0 l/m 0,0 km/h (0 Bft) O-NO 68 0 min 0,0 UV-I 0 W/m 8,8 C 9,4 C 0,0 km/h (0 Bft)
02.07.2022 01:53 9,4 C 96 % 1025,0 hPa 0,0 l/m 0,0 km/h (0 Bft) O-NO 68 0 min 0,0 UV-I 0 W/m 8,8 C 9,4 C 0,0 km/h (0 Bft)
02.07.2022 01:52 9,4 C 96 % 1025,0 hPa 0,0 l/m 0,0 km/h (0 Bft) O-NO 68 0 min 0,0 UV-I 0 W/m 8,8 C 9,4 C 0,0 km/h (0 Bft)
02.07.2022 01:51 9,4 C 96 % 1025,0 hPa 0,0 l/m 0,0 km/h (0 Bft) O-NO 68 0 min 0,0 UV-I 0 W/m 8,8 C 9,4 C 0,0 km/h (0 Bft)
02.07.2022 01:50 9,4 C 96 % 1025,0 hPa 0,0 l/m 0,0 km/h (0 Bft) O-NO 68 0 min 0,0 UV-I 0 W/m 8,8 C 9,4 C 0,0 km/h (0 Bft)
02.07.2022 01:49 9,4 C 96 % 1024,9 hPa 0,0 l/m 0,0 km/h (0 Bft) O-NO 68 0 min 0,0 UV-I 0 W/m 8,8 C 9,4 C 0,0 km/h (0 Bft)
02.07.2022 01:48 9,4 C 96 % 1025,0 hPa 0,0 l/m 0,0 km/h (0 Bft) O-NO 68 0 min 0,0 UV-I 0 W/m 8,8 C 9,4 C 0,0 km/h (0 Bft)
02.07.2022 01:47 9,4 C 96 % 1024,9 hPa 0,0 l/m 0,0 km/h (0 Bft) O-NO 68 0 min 0,0 UV-I 0 W/m 8,8 C 9,4 C 0,0 km/h (0 Bft)
02.07.2022 01:46 9,4 C 96 % 1025,0 hPa 0,0 l/m 0,0 km/h (0 Bft) O-NO 68 0 min 0,0 UV-I 0 W/m 8,8 C 9,4 C 0,0 km/h (0 Bft)
02.07.2022 01:45 9,4 C 96 % 1025,0 hPa 0,0 l/m 0,0 km/h (0 Bft) O-NO 68 0 min 0,0 UV-I 0 W/m 8,8 C 9,4 C 0,0 km/h (0 Bft)
02.07.2022 01:44 9,3 C 96 % 1025,0 hPa 0,0 l/m 0,2 km/h (0 Bft) O-NO 68 0 min 0,0 UV-I 0 W/m 8,7 C 9,3 C 1,6 km/h (1 Bft)
02.07.2022 01:43 9,4 C 96 % 1024,9 hPa 0,0 l/m 0,1 km/h (0 Bft) O-NO 68 0 min 0,0 UV-I 0 W/m 8,8 C 9,4 C 1,6 km/h (1 Bft)
_ Min-Zeit 03:21 09:00 04:15 - 04:00 - - - - - 03:21 03:21 04:00
Minimum _ 7,9 C 77 % 1012,6 hPa - 0,0 km/h (0 Bft) - - - - - 7,3 C 7,9 C 0,0 km/h (0 Bft)
_ Max-Zeit 08:58 23:56 01:15 16:07 14:24 - - 08:03 11:13 11:13 04:09 09:00 14:24
Maximum _ 18,4 C 97 % 1025,0 hPa 0,2 l/m 19,1 km/h
SW (3 Bft)
- - 2 min 6,4 UV-I 954 W/m 16,8 C 18,4 C 27,4 km/h
W (5 Bft)
Durchschnitt _ 14,2 C 91 % 1018,8 hPa #2,6 l/m 3,7 km/h (1 Bft) W - #0 min. 0,0 UV-I 0 W/m 12,8 C 14,0 C 6,5 km/h (2 Bft)
Wetterstation Rettenbach